• In Russia
  • List of Countries
  • For 7 days
  • Water Temperature
  • Satellite Maps
  • Weather Map
  • Weather Widgets
  • user-avatar
    Login

    Hourly Weather Glasgow

    Today, 19 October, Friday

    Time Temperature Precipitation Wind Pressure Humidity
    00:00 +7°C° 0 mm 6 mps 766 mmHg 82%
    01:00 +7°C° 0 mm 6 mps 765 mmHg 81%
    02:00 +6°C° 0 mm 7 mps 765 mmHg 81%
    03:00 +6°C° 0 mm 7 mps 764 mmHg 80%
    04:00 +6°C° 0 mm 7 mps 764 mmHg 81%
    05:00 +6°C° 0 mm 7 mps 764 mmHg 81%
    06:00 +6°C° 0 mm 8 mps 763 mmHg 81%
    07:00 +6°C° 0 mm 8 mps 763 mmHg 80%
    08:00 +7°C° 0 mm 8 mps 763 mmHg 80%
    09:00 +7°C° 0 mm 8 mps 763 mmHg 79%
    10:00 +10°C° 0.1 mm 8 mps 763 mmHg 76%
    11:00 +11°C° 0.1 mm 8 mps 763 mmHg 73%
    12:00 +13°C° 0.1 mm 8 mps 763 mmHg 71%
    13:00 +12°C° 0 mm 7 mps 763 mmHg 73%
    14:00 +12°C° 0 mm 7 mps 764 mmHg 75%
    15:00 +13°C° 0 mm 6 mps 764 mmHg 78%
    16:00 +10°C° 0 mm 5 mps 764 mmHg 81%
    17:00 +10°C° 0 mm 4 mps 765 mmHg 85%
    18:00 +8°C° 0 mm 3 mps 765 mmHg 88%
    19:00 +8°C° 0 mm 3 mps 766 mmHg 88%
    20:00 +7°C° 0 mm 3 mps 766 mmHg 88%
    21:00 +7°C° 0 mm 2 mps 767 mmHg 88%
    22:00 +7°C° 0 mm 2 mps 767 mmHg 86%
    23:00 +7°C° 0 mm 2 mps 767 mmHg 85%

    Tomorrow, 20 October, Saturday

    Time Temperature Precipitation Wind Pressure Humidity
    00:00 +8°C° 0 mm 1 mps 767 mmHg 84%
    01:00 +7°C° 0 mm 2 mps 767 mmHg 83%
    02:00 +8°C° 0 mm 2 mps 767 mmHg 82%
    03:00 +8°C° 0 mm 3 mps 767 mmHg 81%
    04:00 +8°C° 0 mm 3 mps 767 mmHg 83%
    05:00 +7°C° 0 mm 4 mps 767 mmHg 85%
    06:00 +8°C° 0 mm 5 mps 767 mmHg 87%
    07:00 +9°C° 0.1 mm 5 mps 767 mmHg 88%
    08:00 +10°C° 0.1 mm 6 mps 767 mmHg 89%
    09:00 +11°C° 0.1 mm 6 mps 766 mmHg 90%
    10:00 +12°C° 0.2 mm 7 mps 766 mmHg 88%
    11:00 +14°C° 0.2 mm 7 mps 766 mmHg 85%
    12:00 +16°C° 0.2 mm 8 mps 766 mmHg 82%
    13:00 +16°C° 0 mm 8 mps 765 mmHg 81%
    14:00 +17°C° 0 mm 7 mps 765 mmHg 79%
    15:00 +17°C° 0 mm 7 mps 765 mmHg 78%
    16:00 +17°C° 0 mm 7 mps 765 mmHg 81%
    17:00 +16°C° 0 mm 7 mps 765 mmHg 84%
    18:00 +15°C° 0 mm 6 mps 765 mmHg 87%
    19:00 +15°C° 0 mm 6 mps 765 mmHg 87%
    20:00 +15°C° 0 mm 7 mps 765 mmHg 88%
    21:00 +14°C° 0 mm 7 mps 765 mmHg 88%
    22:00 +14°C° 0 mm 7 mps 764 mmHg 89%
    23:00 +14°C° 0 mm 7 mps 764 mmHg 90%

    Day after tomorrow, 21 October, Sunday

    Time Temperature Precipitation Wind Pressure Humidity
    00:00 +14°C° 0 mm 7 mps 764 mmHg 91%
    01:00 +14°C° 0 mm 7 mps 763 mmHg 90%
    02:00 +14°C° 0 mm 7 mps 763 mmHg 90%
    03:00 +13°C° 0 mm 8 mps 763 mmHg 90%
    04:00 +15°C° 0 mm 8 mps 762 mmHg 90%
    05:00 +15°C° 0 mm 8 mps 762 mmHg 89%
    06:00 +15°C° 0 mm 8 mps 762 mmHg 89%
    07:00 +13°C° 0.5 mm 8 mps 762 mmHg 90%
    08:00 +12°C° 0.5 mm 7 mps 762 mmHg 91%
    09:00 +11°C° 0.5 mm 7 mps 762 mmHg 91%
    10:00 +11°C° 0.4 mm 6 mps 763 mmHg 89%
    11:00 +10°C° 0.4 mm 6 mps 763 mmHg 86%
    12:00 +10°C° 0.4 mm 6 mps 763 mmHg 84%
    13:00 +9°C° 0.1 mm 6 mps 764 mmHg 79%
    14:00 +9°C° 0.1 mm 7 mps 764 mmHg 74%
    15:00 +9°C° 0.1 mm 7 mps 765 mmHg 70%
    16:00 +7°C° 0 mm 8 mps 766 mmHg 71%
    17:00 +6°C° 0 mm 8 mps 766 mmHg 72%
    18:00 +5°C° 0 mm 8 mps 767 mmHg 73%
    19:00 +4°C° 0 mm 8 mps 767 mmHg 73%
    20:00 +4°C° 0 mm 8 mps 768 mmHg 74%
    21:00 +4°C° 0 mm 8 mps 768 mmHg 74%
    22:00 +4°C° 0 mm 8 mps 769 mmHg 72%
    23:00 +4°C° 0 mm 8 mps 769 mmHg 71%

    22 October, Monday

    Time Temperature Precipitation Wind Pressure Humidity
    00:00 +2°C° 0 mm 8 mps 769 mmHg 69%
    01:00 +2°C° 0 mm 8 mps 770 mmHg 71%
    02:00 +2°C° 0 mm 8 mps 770 mmHg 72%
    03:00 +4°C° 0 mm 8 mps 770 mmHg 74%
    04:00 +4°C° 0 mm 8 mps 770 mmHg 73%
    05:00 +4°C° 0 mm 8 mps 770 mmHg 73%
    06:00 +5°C° 0 mm 8 mps 770 mmHg 73%
    07:00 +5°C° 0 mm 8 mps 770 mmHg 73%
    08:00 +6°C° 0 mm 8 mps 770 mmHg 73%
    09:00 +7°C° 0 mm 8 mps 771 mmHg 73%
    10:00 +9°C° 0 mm 8 mps 770 mmHg 71%
    11:00 +10°C° 0 mm 8 mps 770 mmHg 69%
    12:00 +11°C° 0 mm 9 mps 770 mmHg 67%
    13:00 +10°C° 0 mm 9 mps 770 mmHg 69%
    14:00 +10°C° 0 mm 9 mps 769 mmHg 72%
    15:00 +10°C° 0 mm 9 mps 769 mmHg 74%
    16:00 +10°C° 0 mm 8 mps 769 mmHg 76%
    17:00 +10°C° 0 mm 8 mps 769 mmHg 78%
    18:00 +10°C° 0 mm 8 mps 769 mmHg 80%
    19:00 +10°C° 0 mm 8 mps 769 mmHg 80%
    20:00 +10°C° 0 mm 8 mps 769 mmHg 81%
    21:00 +10°C° 0 mm 8 mps 770 mmHg 81%
    22:00 +10°C° 0 mm 8 mps 770 mmHg 80%
    23:00 +10°C° 0 mm 8 mps 770 mmHg 79%

    23 October, Tuesday

    Time Temperature Precipitation Wind Pressure Humidity
    00:00 +10°C° 0 mm 9 mps 770 mmHg 78%
    01:00 +10°C° 0 mm 8 mps 770 mmHg 79%
    02:00 +10°C° 0 mm 8 mps 770 mmHg 80%
    03:00 +10°C° 0 mm 7 mps 769 mmHg 81%
    04:00 +10°C° 0 mm 7 mps 769 mmHg 81%
    05:00 +10°C° 0 mm 8 mps 769 mmHg 81%
    06:00 +10°C° 0 mm 8 mps 769 mmHg 82%
    07:00 +10°C° 0 mm 8 mps 769 mmHg 79%
    08:00 +10°C° 0 mm 9 mps 769 mmHg 76%
    09:00 +10°C° 0 mm 9 mps 769 mmHg 74%
    10:00 +11°C° 0 mm 9 mps 769 mmHg 73%
    11:00 +12°C° 0 mm 9 mps 769 mmHg 72%
    12:00 +13°C° 0 mm 9 mps 768 mmHg 72%
    13:00 +13°C° 0 mm 9 mps 768 mmHg 72%
    14:00 +15°C° 0 mm 9 mps 768 mmHg 72%
    15:00 +16°C° 0 mm 9 mps 767 mmHg 73%
    16:00 +16°C° 0 mm 9 mps 767 mmHg 74%
    17:00 +15°C° 0 mm 9 mps 767 mmHg 75%
    18:00 +15°C° 0 mm 9 mps 767 mmHg 77%
    19:00 +15°C° 0 mm 9 mps 767 mmHg 77%
    20:00 +15°C° 0 mm 9 mps 767 mmHg 78%
    21:00 +15°C° 0 mm 8 mps 768 mmHg 79%
    22:00 +15°C° 0 mm 9 mps 768 mmHg 79%
    23:00 +15°C° 0 mm 9 mps 768 mmHg 79%

    24 October, Wednesday

    Time Temperature Precipitation Wind Pressure Humidity
    00:00 +15°C° 0 mm 9 mps 768 mmHg 79%
    01:00 +15°C° 0 mm 9 mps 768 mmHg 78%
    02:00 +15°C° 0 mm 9 mps 768 mmHg 78%
    03:00 +15°C° 0 mm 8 mps 768 mmHg 78%
    04:00 +13°C° 0 mm 8 mps 768 mmHg 79%
    05:00 +13°C° 0 mm 8 mps 769 mmHg 80%
    06:00 +13°C° 0 mm 8 mps 769 mmHg 81%
    07:00 +14°C° 0 mm 7 mps 769 mmHg 80%
    08:00 +14°C° 0 mm 7 mps 770 mmHg 80%
    09:00 +14°C° 0 mm 7 mps 770 mmHg 79%
    10:00 +14°C° 0 mm 7 mps 770 mmHg 76%
    11:00 +14°C° 0 mm 7 mps 770 mmHg 73%
    12:00 +14°C° 0 mm 7 mps 770 mmHg 70%
    13:00 +12°C° 0 mm 7 mps 770 mmHg 69%
    14:00 +13°C° 0 mm 6 mps 770 mmHg 68%
    15:00 +11°C° 0 mm 6 mps 770 mmHg 68%
    16:00 +10°C° 0 mm 5 mps 770 mmHg 72%
    17:00 +10°C° 0 mm 4 mps 770 mmHg 77%
    18:00 +8°C° 0 mm 4 mps 770 mmHg 82%
    19:00 +7°C° 0 mm 4 mps 770 mmHg 83%
    20:00 +8°C° 0 mm 3 mps 770 mmHg 85%
    21:00 +8°C° 0 mm 3 mps 770 mmHg 87%
    22:00 +7°C° 0 mm 3 mps 770 mmHg 88%
    23:00 +7°C° 0 mm 3 mps 770 mmHg 89%
    Show more